Flag for Denmark Weather past 2 weeks in Kolding, Denmark

Now
61 °F

Partly sunny.


Feels Like: 61 °F
Forecast: 55 / 74 °F
Wind: 23 mph from West

Location: Vamdrup

Current Time: Jul 6, 2015 at 11:15:30 AM

Latest Report: Jul 6, 2015 at 9:50 AM


Visibility: N/A

Pressure: 29.95 "Hg

Humidity: 72%

Dew point: 52 °F

Location of KoldingLocation

Historic Weather in Kolding — Graph

°F

Kolding temperature yesterday

Maximum temperature yesterday: 81 °F (at 1:50 PM)
Minimum temperature yesterday: 61 °F (at 5:20 AM)
Average temperature yesterday: 69 °F

Past Weeks' High & Low Weather Summary

 TemperatureHumidityPressure
High82 °F (Jul 3, 4:50 PM)100% (Jun 22, 1:50 AM)30.27 "Hg (Jun 22, 1:50 AM)
Low43 °F (Jun 23, 4:50 AM)40% (Jun 23, 5:20 PM)29.62 "Hg (Jun 22, 7:20 PM)
Average61 °F78%30.04 "Hg
* Reported Jun 21 9:50 AM — Jul 6 9:50 AM, Kolding, Weather by CustomWeather, © 2015

Note: Actual official high and low records may vary slightly from our data, if they occured in-between our weather recording intervals... More about our weather records

Advertising

Kolding weather history for previous 24 hours

 ConditionsComfort  
Time TempWeatherWind HumidityBarometerVisibility
9:50 AM
Mon, Jul 6
61 °FPartly sunny.23 mph72%29.95 "HgN/A
8:50 AM61 °FPartly sunny.23 mph77%29.92 "HgN/A
7:50 AM61 °FPartly sunny.21 mph77%29.92 "HgN/A
7:20 AM61 °FCool.23 mph77%29.89 "HgN/A
6:50 AM61 °FCool.18 mph83%29.89 "HgN/A
6:20 AM61 °FCool.17 mph83%29.89 "HgN/A
5:20 AM61 °FCool.17 mph83%29.89 "HgN/A
4:50 AM61 °FCool.15 mph83%29.89 "HgN/A
4:20 AM61 °FCool.16 mph88%29.89 "HgN/A
3:50 AM61 °FCool.16 mph88%29.89 "HgN/A
3:20 AM61 °FCool.15 mph88%29.86 "HgN/A
2:50 AM63 °FMild.17 mph83%29.86 "HgN/A
2:20 AM63 °FMild.18 mph88%29.86 "HgN/A
1:50 AM63 °FMild.20 mph88%29.86 "HgN/A
1:20 AM64 °FMild.20 mph88%29.83 "HgN/A
12:50 AM66 °FMild.18 mph88%29.83 "HgN/A
12:20 AM68 °FMild.9 mph94%29.83 "HgN/A
11:50 PM
Sun, Jul 5
70 °FMild.5 mph88%29.83 "HgN/A
11:20 PM70 °FMild.5 mph88%29.80 "HgN/A
10:50 PM70 °FMild.6 mph88%29.80 "HgN/A
10:20 PM70 °FMild.9 mph88%29.80 "HgN/A
9:50 PM72 °FMild.6 mph88%29.86 "HgN/A
9:20 PM72 °FMild.2 mph83%29.86 "HgN/A
8:50 PM73 °FMild.3 mph78%29.86 "HgN/A
8:20 PM73 °FMild.9 mph78%29.86 "HgN/A
7:50 PM75 °FMild.8 mph74%29.86 "HgN/A
7:20 PM77 °FWarm.7 mph65%29.86 "HgN/A
1:50 PM81 °FPassing clouds.5 mph54%30.01 "HgN/A
12:50 PM79 °FSunny.2 mph65%30.04 "Hg10 mi
11:50 AM75 °FPassing clouds.7 mph74%30.04 "HgN/A
Weather by CustomWeather, © 2015

See weather overviewHow to use our weather pages